Regional Weather Roundup
Issued by NWS

Home | Current Version | Previous Version | Text Only | Print | Product List | Glossary Off
Versions: 1 2 3 4 5 6 7 8 9 10 11 12 13 14 15 16 17 18 19 20 21 22 23 24 25 26 27 28 29 30 31 32 33 34 35 36 37 38 39 40 41 42 43 44 45 46 47 48

000
ASUS45 KSLC 281110
RWRUT

UTAH REGIONAL WEATHER ROUNDUP
NATIONAL WEATHER SERVICE SALT LAKE CITY UT
500 AM MDT SAT MAR 28 2015

UTZ001>011-023>025-281200-

NORTHERN UTAH

CITY           SKY/WX    TMP DP  RH WIND       PRES   REMARKS
BRIGHAM CITY   CLEAR     40  33  75 CALM      30.09F
HILL AFB       CLEAR     49  29  45 E17       30.10F
LOGAN          MOCLDY    38  32  79 CALM      30.10F
OGDEN          CLEAR     48  30  49 S10       30.08F
PROVO AIRPORT  CLEAR     46  36  66 S3        30.13F
SALT LAKE CITY CLEAR     50  33  52 SE9       30.08F
VERNAL         PTCLDY    38  26  62 CALM      30.16S
WENDOVER       CLEAR     43  25  49 NE5       30.09S
HEBER CITY     CLEAR     32  28  86 CALM      30.20F
WEST JORDAN    CLEAR     54  34  47 S12       30.10F

$$

UTZ012>022-026-027-281200-

SOUTHERN/CENTRAL UTAH

CITY           SKY/WX    TMP DP  RH WIND       PRES   REMARKS
BLANDING       PTCLDY    40  24  51 N3        30.28F
BRYCE CANYON   PTCLDY    31  24  75 W8        30.31F WCI  23
CEDAR CITY     CLEAR     37  25  61 CALM      30.20S
DELTA          CLEAR     42  30  62 E5        30.13S
HANKSVILLE     CLEAR     41  21  45 CALM      30.16F
MILFORD        CLEAR     44  23  43 SW15      30.15F
MOAB/CYNLANDS  CLEAR     44  22  41 CALM      30.13R
PRICE          CLEAR     43  21  41 N7        30.19S
ST GEORGE      SUNNY     54  25  32 SE6       30.14R
KANAB          CLEAR     36  23  60 E5        30.25S WCI  32

$$

REGIONAL REPORTS     COLORADO/ARIZONA

CITY           SKY/WX    TMP DP  RH WIND       PRES   REMARKS
CRAIG, CO      CLEAR     28  25  88 SW3       30.21S
GRAND JUNCTION CLEAR     44  26  49 SE14      30.16S
RIFLE          CLEAR     36  26  67 CALM      30.22S
MONTROSE       CLEAR     40  25  55 S5        30.24S
CORTEZ         CLEAR     30  21  69 E3        30.24S
PAGE, AZ       CLEAR     54  22  28 CALM      30.15S
GRAND CANYON   PTCLDY    26  19  74 E3        30.30S
KINGMAN        CLEAR     48  25  40 S6        30.13F
FLAGSTAFF      PTCLDY    31  20  63 CALM      30.31S

$$

REGIONAL REPORTS    NEVADA/IDAHO/WYOMING

CITY           SKY/WX    TMP DP  RH WIND       PRES   REMARKS
LAS VEGAS, NV  CLEAR     64  27  24 SW6       30.00F
ELY            CLEAR     39  18  42 CALM      30.21S
ELKO           CLEAR     35  25  66 CALM      30.13F
POCATELLO, ID  CLEAR     58  29  33 S9        30.02F
BURLEY         CLEAR     53  29  39 S13       30.00F
EVANSTON, WY   PTCLDY    39  25  57 SW9       30.20F WCI  33
ROCK SPRINGS   PTCLDY    37  26  64 S7        30.18F WCI  32
KEMMERER       PTCLDY    32  28  86 NW8       30.20F WCI  25

$$



USA.gov is the U.S. government's official web portal to all federal, state and local government web resources and services.